Погода в Отрадном

Россия / Республика Крым     44°51′38″N   33°43′59″E
темп.,
°C
ветер,
м/с
пор.,
м/с
влажн.,
%
обл.,
%
осадки,
мм/ч
давл.,
гПа
погр.,
м
18 апреля, вс
вс1800:00+6в1169100 0.0 101811
03:00+7всв1166100 0.4 101727
06:00+6всв226963 0.1 101717
09:00+10вюв1264100 0.1 1016197
12:00+13з2157100 0.0 1016644
15:00+12з326574 0.0 1016340
18:00+13с226829 0.0 1015543
21:00+9з2285100 0.0 101627
19 апреля, пн
пн1900:00+9з0181100 0.0 101663
03:00+9юз1183100 0.0 101637
06:00+9ююз1183100 0.0 101522
09:00+12зюз2276100 0.0 1015413
12:00+14зсз2270100 0.0 1014836
15:00+15с2269100 0.0 1012829
18:00+12ссв1286100 1.1 1012235
21:00+11в1294100 3.1 101074
20 апреля, вт
вт2000:00+12вюв1195100 1.5 100625
03:00+12юв249688 8.5 1005168
06:00+11ююз71191100 0.2 1003960
09:00+10ююз81393100 0.3 1003913
12:00+10ююз101685100 0.1 10031012
15:00+9ююз132187100 0.2 10031240
18:00+8зюз121695100 0.1 10051074
21:00+8з91393100 0.8 1010943
21 апреля, ср
ср2100:00+9зюз4983100 0.2 1013462
03:00+7ююз339248 0.4 101552
06:00+7ю2291100 0.0 101621
09:00+11юз3572100 0.1 1018502
12:00+13зюз4561100 0.1 10181021
15:00+14зюз55605 0.1 10191181
18:00+12зюз456935 0.0 1019555
21:00+8ююз1188100 0.0 102117
22 апреля, чт
чт2200:00+8ю1183100 0.0 102113
03:00+8юв228598 0.0 102115
06:00+7юв118634 0.1 102110
09:00+12юз226879 0.1 1021506
12:00+15юз555631 0.4 10211474
15:00+15юз66543 0.5 10211350
18:00+13юз55630 0.0 1021601
21:00+9ю22800 0.0 102215